| time (UTC) | temp F | wind direction | speed MPH | gust MPH | rain 1hr in | rain 24hr in | rain mn in | humidity % | barometer mb |
| 20260508211054 | 79 | 229 | 3.0 | 7.0 | 0.00 | 0.00 | 0.00 | 28 | 1003.7 |
| 20260508210032 | 78 | 271 | 4.0 | 9.0 | 0.00 | 0.00 | 0.00 | 28 | 1003.8 |
| 20260508205027 | 75 | 221 | 5.0 | 8.0 | 0.00 | 0.00 | 0.00 | 28 | 1004.2 |
| 20260508204024 | 78 | 222 | 7.0 | 17.0 | 0.00 | 0.00 | 0.00 | 28 | 1004.4 |
| 20260508203041 | 77 | 233 | 7.0 | 14.0 | 0.00 | 0.00 | 0.00 | 28 | 1004.5 |
| 20260508202017 | 75 | 198 | 5.0 | 14.0 | 0.00 | 0.00 | 0.00 | 27 | 1004.5 |
| 20260508201035 | 76 | 206 | 8.0 | 17.0 | 0.00 | 0.00 | 0.00 | 26 | 1004.9 |
| 20260508200050 | 77 | 236 | 4.0 | 8.0 | 0.00 | 0.00 | 0.00 | 30 | 1004.8 |
| 20260508195027 | 76 | 232 | 4.0 | 9.0 | 0.00 | 0.00 | 0.00 | 29 | 1005.1 |
| 20260508194024 | 78 | 206 | 5.0 | 9.0 | 0.00 | 0.00 | 0.00 | 27 | 1005.4 |
| 20260508193020 | 78 | 235 | 3.0 | 10.0 | 0.00 | 0.00 | 0.00 | 30 | 1005.4 |
| 20260508192017 | 78 | 219 | 7.0 | 15.0 | 0.00 | 0.00 | 0.00 | 29 | 1005.7 |
| 20260508191034 | 76 | 235 | 3.0 | 6.0 | 0.00 | 0.00 | 0.00 | 31 | 1005.7 |
| 20260508190030 | 74 | 227 | 6.0 | 14.0 | 0.00 | 0.00 | 0.00 | 29 | 1005.8 |
| 20260508185027 | 76 | 256 | 3.0 | 8.0 | 0.00 | 0.00 | 0.00 | 30 | 1005.9 |
| 20260508184023 | 76 | 247 | 5.0 | 10.0 | 0.00 | 0.00 | 0.00 | 29 | 1006.1 |
| 20260508183020 | 76 | 258 | 4.0 | 8.0 | 0.00 | 0.00 | 0.00 | 30 | 1006.3 |
| 20260508182016 | 75 | 207 | 4.0 | 9.0 | 0.00 | 0.00 | 0.00 | 29 | 1006.4 |
| 20260508181036 | 75 | 243 | 7.0 | 18.0 | 0.00 | 0.00 | 0.00 | 29 | 1006.4 |
| 20260508180030 | 74 | 222 | 5.0 | 10.0 | 0.00 | 0.00 | 0.00 | 31 | 1006.6 |
| 20260508175026 | 74 | 210 | 3.0 | 11.0 | 0.00 | 0.00 | 0.00 | 28 | 1006.7 |
| 20260508174023 | 74 | 213 | 6.0 | 16.0 | 0.00 | 0.00 | 0.00 | 30 | 1006.9 |
| 20260508173020 | 74 | 235 | 5.0 | 10.0 | 0.00 | 0.00 | 0.00 | 33 | 1007.1 |
| 20260508172016 | 73 | 226 | 4.0 | 8.0 | 0.00 | 0.00 | 0.00 | 34 | 1007.3 |
| 20260508171033 | 72 | 212 | 6.0 | 15.0 | 0.00 | 0.00 | 0.00 | 33 | 1007.6 |
| 20260508170029 | 71 | 238 | 5.0 | 11.0 | 0.00 | 0.00 | 0.00 | 34 | 1007.6 |
| 20260508165026 | 69 | 214 | 4.0 | 8.0 | 0.00 | 0.00 | 0.00 | 34 | 1007.8 |
| 20260508164023 | 70 | 187 | 5.0 | 9.0 | 0.00 | 0.00 | 0.00 | 34 | 1007.9 |
| 20260508163020 | 70 | 177 | 4.0 | 8.0 | 0.00 | 0.00 | 0.00 | 35 | 1008.1 |
| 20260508162016 | 69 | 214 | 5.0 | 11.0 | 0.00 | 0.00 | 0.00 | 35 | 1008.4 |
| 20260508161034 | 69 | 230 | 2.0 | 7.0 | 0.00 | 0.00 | 0.00 | 37 | 1008.5 |
| 20260508160031 | 68 | 185 | 5.0 | 9.0 | 0.00 | 0.00 | 0.00 | 35 | 1008.6 |
| 20260508155026 | 68 | 175 | 4.0 | 9.0 | 0.00 | 0.00 | 0.00 | 36 | 1008.8 |
| 20260508154023 | 67 | 213 | 5.0 | 11.0 | 0.00 | 0.00 | 0.00 | 37 | 1008.8 |
| 20260508153019 | 66 | 226 | 4.0 | 10.0 | 0.00 | 0.00 | 0.00 | 39 | 1008.9 |
| 20260508152016 | 65 | 224 | 7.0 | 14.0 | 0.00 | 0.00 | 0.00 | 39 | 1009.1 |
| 20260508151053 | 64 | 225 | 4.0 | 8.0 | 0.00 | 0.00 | 0.00 | 43 | 1009.0 |
| 20260508150029 | 63 | 218 | 4.0 | 8.0 | 0.00 | 0.00 | 0.00 | 46 | 1009.0 |
| 20260508145026 | 61 | 179 | 4.0 | 8.0 | 0.00 | 0.00 | 0.00 | 43 | 1009.1 |
| 20260508144024 | 60 | 158 | 4.0 | 9.0 | 0.00 | 0.00 | 0.00 | 46 | 1009.3 |
| 20260508143040 | 59 | 206 | 5.0 | 10.0 | 0.00 | 0.00 | 0.00 | 49 | 1009.3 |
| 20260508142016 | 59 | 216 | 5.0 | 9.0 | 0.00 | 0.00 | 0.00 | 54 | 1009.4 |
| 20260508141033 | 58 | 228 | 4.0 | 7.0 | 0.00 | 0.00 | 0.00 | 59 | 1009.3 |
| 20260508140029 | 56 | 214 | 2.0 | 6.0 | 0.00 | 0.00 | 0.00 | 65 | 1009.3 |
| 20260508135027 | 54 | 308 | 1.0 | 2.0 | 0.00 | 0.00 | 0.00 | 70 | 1009.3 |
| 20260508134043 | 51 | 319 | 0.0 | 2.0 | 0.00 | 0.00 | 0.00 | 72 | 1009.3 |
| 20260508133019 | 49 | 129 | 0.0 | 1.0 | 0.00 | 0.00 | 0.00 | 74 | 1009.5 |
| 20260508132017 | 47 | 209 | 0.0 | 1.0 | 0.00 | 0.00 | 0.00 | 76 | 1009.6 |
| 20260508131033 | 45 | 165 | 0.0 | 1.0 | 0.00 | 0.00 | 0.00 | 78 | 1009.8 |
| 20260508130029 | 43 | 127 | 1.0 | 2.0 | 0.00 | 0.00 | 0.00 | 80 | 1009.9 |
| 20260508125026 | 41 | 59 | 0.0 | 1.0 | 0.00 | 0.00 | 0.00 | 81 | 1009.8 |
| 20260508124022 | 38 | 0.0 | 0.0 | 0.00 | 0.00 | 0.00 | 82 | 1009.8 | |
| 20260508123019 | 36 | 0.0 | 0.0 | 0.00 | 0.00 | 0.00 | 83 | 1009.9 | |
| 20260508122015 | 33 | 0.0 | 0.0 | 0.00 | 0.00 | 0.00 | 84 | 1009.9 | |
| 20260508121032 | 30 | 0.0 | 0.0 | 0.00 | 0.00 | 0.00 | 84 | 1009.7 | |
| 20260508120029 | 28 | 0.0 | 0.0 | 0.00 | 0.00 | 0.00 | 83 | 1009.8 | |
| 20260508115046 | 27 | 0.0 | 0.0 | 0.00 | 0.00 | 0.00 | 83 | 1009.8 | |
| 20260508114022 | 26 | 0.0 | 0.0 | 0.00 | 0.00 | 0.00 | 83 | 1009.8 | |
| 20260508113039 | 26 | 0.0 | 0.0 | 0.00 | 0.00 | 0.00 | 83 | 1009.7 | |
| 20260508112037 | 25 | 0.0 | 0.0 | 0.00 | 0.00 | 0.00 | 83 | 1009.8 | |
| 20260508111032 | 25 | 0.0 | 0.0 | 0.00 | 0.00 | 0.00 | 82 | 1009.8 | |
| 20260508110031 | 25 | 0.0 | 0.0 | 0.00 | 0.00 | 0.00 | 83 | 1009.8 | |
| 20260508105026 | 25 | 0.0 | 0.0 | 0.00 | 0.00 | 0.00 | 83 | 1009.7 | |
| 20260508104022 | 25 | 0.0 | 0.0 | 0.00 | 0.00 | 0.00 | 82 | 1009.7 | |
| 20260508103038 | 25 | 0.0 | 0.0 | 0.00 | 0.00 | 0.00 | 82 | 1009.8 | |
| 20260508102036 | 25 | 0.0 | 0.0 | 0.00 | 0.00 | 0.00 | 82 | 1009.8 | |
| 20260508101032 | 25 | 0.0 | 0.0 | 0.00 | 0.00 | 0.00 | 81 | 1009.8 | |
| 20260508100029 | 25 | 0.0 | 0.0 | 0.00 | 0.00 | 0.00 | 81 | 1009.8 | |
| 20260508095026 | 25 | 0.0 | 0.0 | 0.00 | 0.00 | 0.00 | 81 | 1010.0 | |
| 20260508094022 | 25 | 0.0 | 0.0 | 0.00 | 0.00 | 0.00 | 81 | 1010.1 | |
| 20260508093018 | 26 | 0.0 | 0.0 | 0.00 | 0.00 | 0.00 | 81 | 1010.0 | |
| 20260508092035 | 26 | 0.0 | 0.0 | 0.00 | 0.00 | 0.00 | 81 | 1010.2 | |
| 20260508091032 | 26 | 0.0 | 0.0 | 0.00 | 0.00 | 0.00 | 81 | 1010.3 | |
| 20260508090029 | 26 | 0.0 | 0.0 | 0.00 | 0.00 | 0.00 | 81 | 1010.4 | |
| 20260508085045 | 26 | 0.0 | 0.0 | 0.00 | 0.00 | 0.00 | 80 | 1010.3 | |
| 20260508084043 | 26 | 0.0 | 0.0 | 0.00 | 0.00 | 0.00 | 80 | 1010.3 | |
| 20260508083019 | 26 | 0.0 | 0.0 | 0.00 | 0.00 | 0.00 | 80 | 1010.3 | |
| 20260508082037 | 26 | 0.0 | 0.0 | 0.00 | 0.00 | 0.00 | 79 | 1010.3 | |
| 20260508081032 | 26 | 0.0 | 0.0 | 0.00 | 0.00 | 0.00 | 79 | 1010.3 | |
| 20260508080028 | 26 | 0.0 | 0.0 | 0.00 | 0.00 | 0.00 | 79 | 1010.3 | |
| 20260508075025 | 26 | 0.0 | 0.0 | 0.00 | 0.00 | 0.00 | 79 | 1010.3 | |
| 20260508074022 | 26 | 0.0 | 0.0 | 0.00 | 0.00 | 0.00 | 79 | 1010.4 | |
| 20260508073018 | 27 | 0.0 | 0.0 | 0.00 | 0.00 | 0.00 | 78 | 1010.4 | |
| 20260508072035 | 27 | 0.0 | 0.0 | 0.00 | 0.00 | 0.00 | 78 | 1010.4 | |
| 20260508071033 | 27 | 0.0 | 0.0 | 0.00 | 0.00 | 0.00 | 78 | 1010.4 | |
| 20260508070030 | 27 | 0.0 | 0.0 | 0.00 | 0.00 | 0.00 | 78 | 1010.6 | |
| 20260508065025 | 27 | 0.0 | 0.0 | 0.00 | 0.00 | 0.00 | 78 | 1010.6 | |
| 20260508064021 | 28 | 0.0 | 0.0 | 0.00 | 0.00 | 0.00 | 78 | 1010.7 | |
| 20260508063018 | 28 | 0.0 | 0.0 | 0.00 | 0.00 | 0.00 | 77 | 1010.9 | |
| 20260508062037 | 28 | 0.0 | 0.0 | 0.00 | 0.00 | 0.00 | 76 | 1010.8 | |
| 20260508061051 | 28 | 0.0 | 0.0 | 0.00 | 0.00 | 0.00 | 76 | 1011.0 | |
| 20260508060030 | 28 | 0.0 | 0.0 | 0.00 | 0.00 | 0.00 | 76 | 1011.0 | |
| 20260508055025 | 28 | 0.0 | 0.0 | 0.00 | 0.00 | 0.00 | 76 | 1011.0 | |
| 20260508054022 | 29 | 0.0 | 0.0 | 0.00 | 0.00 | 0.00 | 75 | 1011.0 | |
| 20260508053018 | 29 | 0.0 | 0.0 | 0.00 | 0.00 | 0.00 | 75 | 1011.1 | |
| 20260508052035 | 29 | 0.0 | 0.0 | 0.00 | 0.00 | 0.00 | 75 | 1011.1 | |
| 20260508051031 | 29 | 0.0 | 0.0 | 0.00 | 0.00 | 0.00 | 74 | 1011.2 | |
| 20260508050028 | 30 | 0.0 | 0.0 | 0.00 | 0.00 | 0.00 | 74 | 1011.2 | |
| 20260508045025 | 30 | 0.0 | 0.0 | 0.00 | 0.00 | 0.00 | 74 | 1011.2 | |
| 20260508044042 | 30 | 0.0 | 0.0 | 0.00 | 0.00 | 0.00 | 73 | 1011.2 | |
| 20260508043018 | 30 | 0.0 | 0.0 | 0.00 | 0.00 | 0.00 | 72 | 1011.1 | |
| 20260508042034 | 31 | 0.0 | 0.0 | 0.00 | 0.00 | 0.00 | 72 | 1011.3 | |
| 20260508041031 | 31 | 0.0 | 0.0 | 0.00 | 0.00 | 0.00 | 72 | 1011.3 | |
| 20260508040028 | 32 | 0.0 | 0.0 | 0.00 | 0.00 | 0.00 | 71 | 1011.1 | |
| 20260508035024 | 32 | 0.0 | 0.0 | 0.00 | 0.00 | 0.00 | 71 | 1011.2 | |
| 20260508034101 | 33 | 0.0 | 0.0 | 0.00 | 0.00 | 0.00 | 72 | 1011.1 | |
| 20260508033018 | 33 | 0.0 | 0.0 | 0.00 | 0.00 | 0.00 | 72 | 1011.0 | |
| 20260508032054 | 33 | 0.0 | 0.0 | 0.00 | 0.00 | 0.00 | 69 | 1011.0 | |
| 20260508031031 | 34 | 0.0 | 0.0 | 0.00 | 0.00 | 0.00 | 69 | 1010.9 | |
| 20260508030049 | 34 | 0.0 | 0.0 | 0.00 | 0.00 | 0.00 | 69 | 1010.9 | |
| 20260508025024 | 35 | 0.0 | 0.0 | 0.00 | 0.00 | 0.00 | 67 | 1010.8 | |
| 20260508024041 | 36 | 89 | 1.0 | 2.0 | 0.00 | 0.00 | 0.00 | 67 | 1010.8 |
| 20260508023018 | 37 | 91 | 2.0 | 2.0 | 0.00 | 0.00 | 0.00 | 67 | 1010.6 |
| 20260508022034 | 38 | 85 | 2.0 | 3.0 | 0.00 | 0.00 | 0.00 | 67 | 1010.4 |
| 20260508021032 | 38 | 93 | 1.0 | 2.0 | 0.00 | 0.00 | 0.00 | 65 | 1010.3 |
| 20260508020048 | 39 | 84 | 3.0 | 3.0 | 0.00 | 0.00 | 0.00 | 66 | 1010.2 |
| 20260508015024 | 40 | 80 | 3.0 | 4.0 | 0.00 | 0.00 | 0.00 | 64 | 1010.1 |
| 20260508014021 | 42 | 82 | 3.0 | 3.0 | 0.00 | 0.00 | 0.00 | 60 | 1010.0 |
| 20260508013039 | 44 | 83 | 2.0 | 3.0 | 0.00 | 0.00 | 0.00 | 54 | 1009.9 |
| 20260508012034 | 47 | 81 | 2.0 | 2.0 | 0.00 | 0.00 | 0.00 | 49 | 1009.7 |
| 20260508011051 | 49 | 86 | 0.0 | 1.0 | 0.00 | 0.00 | 0.00 | 43 | 1009.8 |
| 20260508010028 | 51 | 220 | 1.0 | 2.0 | 0.00 | 0.00 | 0.00 | 40 | 1009.7 |
| 20260508005024 | 52 | 219 | 1.0 | 4.0 | 0.00 | 0.00 | 0.00 | 39 | 1009.6 |
| 20260508004022 | 54 | 214 | 1.0 | 2.0 | 0.00 | 0.00 | 0.00 | 38 | 1009.4 |
| 20260508003017 | 55 | 209 | 2.0 | 3.0 | 0.00 | 0.00 | 0.00 | 37 | 1009.3 |
| 20260508002034 | 56 | 246 | 2.0 | 4.0 | 0.00 | 0.00 | 0.00 | 36 | 1009.3 |
| 20260508001031 | 57 | 253 | 2.0 | 3.0 | 0.00 | 0.00 | 0.00 | 36 | 1009.2 |
| 20260508000047 | 58 | 272 | 3.0 | 8.0 | 0.00 | 0.00 | 0.00 | 35 | 1009.1 |
| 20260507235021 | 59 | 267 | 3.0 | 9.0 | 0.00 | 0.00 | 0.00 | 35 | 1009.2 |
| 20260507234018 | 59 | 250 | 2.0 | 3.0 | 0.00 | 0.00 | 0.00 | 34 | 1009.1 |
| 20260507233036 | 59 | 268 | 4.0 | 9.0 | 0.00 | 0.00 | 0.00 | 33 | 1009.0 |
| 20260507232032 | 60 | 261 | 4.0 | 10.0 | 0.00 | 0.00 | 0.00 | 34 | 1009.1 |
| 20260507231028 | 60 | 260 | 4.0 | 7.0 | 0.00 | 0.00 | 0.00 | 33 | 1009.1 |
| 20260507230045 | 61 | 243 | 5.0 | 13.0 | 0.00 | 0.00 | 0.00 | 32 | 1009.2 |
| 20260507225041 | 63 | 248 | 5.0 | 11.0 | 0.00 | 0.00 | 0.00 | 32 | 1009.3 |
| 20260507224018 | 64 | 234 | 7.0 | 14.0 | 0.00 | 0.00 | 0.00 | 31 | 1009.2 |
| 20260507223035 | 65 | 269 | 4.0 | 11.0 | 0.00 | 0.00 | 0.00 | 30 | 1009.1 |
| 20260507222031 | 67 | 248 | 5.0 | 11.0 | 0.00 | 0.00 | 0.00 | 31 | 1009.1 |
| 20260507221028 | 68 | 261 | 4.0 | 8.0 | 0.00 | 0.00 | 0.00 | 30 | 1009.3 |
| 20260507220024 | 67 | 239 | 2.0 | 7.0 | 0.00 | 0.00 | 0.00 | 32 | 1009.2 |
| 20260507215021 | 67 | 289 | 4.0 | 9.0 | 0.00 | 0.00 | 0.00 | 32 | 1009.2 |
| 20260507214017 | 68 | 285 | 5.0 | 13.0 | 0.00 | 0.00 | 0.00 | 30 | 1009.3 |
| 20260507213034 | 69 | 256 | 5.0 | 10.0 | 0.00 | 0.00 | 0.00 | 31 | 1009.2 |
| 20260507212031 | 69 | 237 | 6.0 | 14.0 | 0.00 | 0.00 | 0.00 | 32 | 1009.3 |